Dewpoint
39 43 48 57 61 61 62 64 65 66 67 67 66 65 65 66 66 65 64 63 63 63 62 62 62 61 59 59 59 59 59 59 59 58 58 58 58 58 59 59 58 58 57
38 40 47 54 59 60 61 64 65 66 66 66 67 66 65 65 65 66 66 66 65 65 63 63 63 62 62 61 60 60 59 59 60 58 58 56 57 58 58 58 57 55 55
35 39 43 49 58 60 61 63 63 64 67 67 66 65 65 65 65 65 66 66 66 66 66 65 64 64 63 62 62 61 60 59 59 59 57 54 54 55 56 54 54 53 52
34 37 43 48 57 60 61 62 61 63 65 66 65 63 63 62 63 64 65 65 66 65 65 65 65 65 64 63 63 63 62 60 59 60 60 59 58 54 53 55 53 51 51
35 38 42 45 45 50 54 60 62 63 64 64 64 63 62 61 61 63 63 64 65 65 65 65 64 64 64 64 64 63 63 62 60 60 59 58 58 57 55 53 53 53 50
35 39 46 47 46 48 48 49 58 61 63 63 62 60 61 60 61 62 62 63 64 65 65 65 64 64 64 63 63 63 63 62 61 61 61 59 57 57 56 55 55 52 50
36 41 44 45 46 47 49 51 50 51 57 60 62 61 58 59 58 60 60 58 58 59 62 63 63 63 64 64 64 63 63 63 62 62 61 61 59 59 57 55 54 52 50
37 41 43 43 45 47 48 47 47 46 49 51 53 55 58 58 56 55 55 56 57 57 57 57 57 58 60 62 63 63 63 63 62 61 61 60 59 58 58 55 54 51 51
35 39 40 43 44 46 46 46 46 47 47 48 46 45 46 47 48 49 50 50 51 51 52 54 54 55 56 57 59 61 61 62 61 60 59 56 54 54 54 54 54 53 49
32 33 38 40 44 44 45 45 46 46 47 47 46 46 46 47 48 49 49 49 50 50 51 52 53 53 54 54 55 56 55 55 53 53 52 51 51 51 51 51 51 51 51
32 32 34 37 43 44 44 44 45 46 46 46 45 45 45 44 44 44 44 44 44 45 46 47 48 49 50 51 52 52 52 52 51 51 50 49 49 48 47 46 47 48 48
34 34 34 40 42 43 44 44 45 45 44 44 43 43 42 42 42 41 41 41 41 42 42 43 45 45 45 48 50 49 50 50 49 48 47 46 46 45 45 46 45 46 46
37 37 38 41 42 43 43 44 43 42 42 42 41 41 41 41 40 40 39 40 40 40 41 41 42 42 42 43 45 48 48 48 47 46 45 44 44 44 44 42 40 41 41
39 38 39 40 41 42 42 42 42 41 41 41 40 40 40 39 39 39 38 38 39 39 39 39 40 40 41 41 42 43 44 43 43 43 43 43 43 42 40 39 38 39 38
39 39 39 40 41 42 42 41 41 40 40 40 40 39 39 39 38 38 38 38 38 38 38 39 39 40 39 39 41 41 41 40 40 40 39 39 40 41 40 38 36 37 37
39 39 40 40 40 41 41 41 40 40 40 40 39 39 38 38 38 38 38 38 38 38 38 39 39 39 39 40 41 41 39 39 37 36 36 38 39 38 39 39 38 37 36
39 40 40 40 40 41 41 40 40 40 39 39 39 39 38 39 39 38 38 38 38 38 38 38 38 39 40 40 41 41 39 38 36 36 36 36 37 35 34 35 35 35 35
38 40 41 41 41 41 41 40 40 39 40 39 38 39 39 39 39 38 38 37 37 38 38 36 37 39 39 40 41 40 37 37 36 36 34 33 31 32 28 29 28 27 29
36 40 41 41 42 40 40 40 39 39 40 39 38 39 39 39 38 37 37 38 38 36 35 37 37 37 38 40 39 36 33 33 31 29 29 28 27 30 30 29 28 27 28
39 41 42 43 42 41 40 39 39 38 39 39 39 39 39 39 38 37 38 36 37 35 36 36 37 37 36 38 38 34 29 27 26 27 27 31 28 30 30 28 25 26 27
39 40 42 43 43 42 40 39 39 39 40 40 39 39 39 38 37 36 37 36 35 35 35 35 35 36 35 35 36 31 24 24 24 25 25 26 32 28 25 22 22 22 25
39 41 41 40 41 41 40 40 39 40 40 39 39 39 38 38 38 37 36 35 35 34 33 32 31 31 30 35 34 29 24 25 24 23 25 27 29 29 28 22 24 26 27
37 38 39 39 39 40 40 39 39 40 39 38 38 37 38 37 36 36 35 34 33 32 31 30 30 28 27 27 31 30 28 24 21 21 24 29 29 27 27 26 28 28 24
36 37 37 37 37 38 38 39 39 39 38 37 37 37 36 36 35 35 34 33 32 31 30 29 29 27 26 26 28 28 27 27 21 22 24 25 27 26 25 26 25 28 25
36 36 36 36 36 36 36 36 37 37 36 36 36 37 36 36 35 35 33 33 32 32 31 31 30 28 25 26 30 29 27 25 24 25 26 23 21 23 22 20 25 26 25
37 37 36 36 37 36 36 35 36 36 36 35 36 36 35 35 35 34 33 36 35 35 35 34 32 27 29 29 30 31 32 31 30 24 21 21 21 21 20 20 21 23 24
Lifted_Index
2 2 1 -2 -4 -5 -6 -6 -6 -6 -6 -6 -6 -5 -5 -5 -4 -4 -3 -3 -3 -2 -2 -1 -1 -1 -0 0 1 0 1 1 1 1 1 0 0 -0 -0 0 0 1 1
2 2 1 -1 -3 -5 -5 -6 -6 -6 -6 -6 -6 -5 -5 -5 -4 -4 -3 -3 -3 -3 -2 -2 -2 -1 -1 -0 -0 -0 0 0 0 0 0 0 -0 -0 -1 -0 0 1 1
3 2 1 -1 -3 -4 -5 -6 -6 -6 -6 -6 -5 -5 -4 -4 -4 -3 -3 -3 -3 -3 -3 -2 -2 -2 -2 -2 -1 -1 -0 -0 -0 -0 -0 -1 -1 -1 -1 -0 0 1 1
3 2 2 0 -2 -4 -5 -5 -6 -6 -6 -6 -5 -4 -4 -3 -3 -3 -2 -2 -2 -2 -2 -2 -2 -2 -2 -2 -2 -1 -1 -1 -0 -0 -1 -1 -1 -1 -1 -0 0 1 1
3 2 2 1 -1 -3 -4 -5 -5 -5 -6 -5 -4 -3 -2 -2 -2 -2 -2 -2 -2 -2 -2 -2 -1 -1 -1 -1 -1 -1 -1 -1 -1 -1 -2 -2 -2 -2 -1 -1 0 1 1
3 2 1 1 1 -1 -2 -3 -4 -4 -5 -4 -3 -1 -1 -0 -1 -1 -1 -1 -1 -2 -1 -1 -1 -1 -1 -1 -1 -1 -1 -1 -1 -2 -2 -2 -2 -2 -2 -1 0 1 2
3 2 1 1 1 1 -0 -1 -2 -3 -3 -3 -2 -1 0 1 1 1 1 1 1 0 -0 -0 -0 -0 -0 -1 -1 -0 -1 -1 -2 -2 -3 -2 -3 -2 -2 -1 1 2 2
2 2 1 1 1 1 1 1 0 -0 -0 -1 -1 -1 -0 1 1 1 1 1 2 2 1 1 1 1 1 1 1 0 -0 -1 -2 -2 -2 -2 -2 -2 -1 -0 1 2 2
2 2 2 1 1 2 1 1 1 1 1 1 1 1 1 1 1 1 1 1 2 3 3 3 3 4 3 3 3 2 1 -0 -1 -2 -2 -2 -2 -2 -1 -0 1 2 3
3 2 2 2 2 2 1 1 1 1 1 2 2 2 2 2 2 2 2 3 3 4 5 5 6 5 5 5 4 3 2 1 -0 -1 -1 -1 -1 -1 -0 0 1 2 3
3 3 3 3 2 2 1 1 1 1 1 1 2 2 3 4 4 4 4 5 6 6 7 7 7 6 6 6 5 4 3 2 1 0 -0 -0 0 1 1 1 2 3 4
4 4 4 4 3 2 1 1 1 1 1 1 1 2 3 4 5 5 6 6 7 7 7 7 7 7 7 6 6 5 4 3 2 2 1 2 2 2 2 3 3 4 5
5 5 5 4 4 3 3 2 2 2 2 1 1 2 4 5 5 6 6 6 7 7 7 7 7 7 7 7 6 5 5 4 4 3 3 3 3 3 3 4 5 7 8
4 4 4 4 4 4 4 4 3 3 3 3 3 4 4 5 5 5 5 6 6 6 7 7 7 7 7 7 7 6 6 5 5 5 5 4 5 5 5 6 7 8 9
4 4 4 4 4 4 4 4 4 4 4 4 4 4 5 5 5 5 5 5 6 6 6 7 7 7 7 7 7 7 7 7 7 6 6 6 6 7 7 8 9 9 9
4 4 4 4 4 4 4 4 4 4 4 4 4 4 5 5 5 5 5 5 5 6 6 6 6 7 7 7 7 8 8 8 8 8 8 8 8 8 9 9 9 9 9
3 3 3 3 3 4 4 4 4 4 4 4 4 5 5 5 5 5 5 5 5 5 6 6 6 6 7 7 7 8 8 8 8 8 8 8 9 9 9 10 10 10 11
3 3 3 3 3 3 4 4 4 5 4 4 4 4 4 4 4 4 4 5 5 5 5 6 6 6 7 7 8 8 8 8 8 8 9 9 9 9 10 11 11 13 13
3 3 3 3 3 3 4 4 4 4 4 4 4 4 4 4 4 4 4 4 5 5 6 6 6 7 7 8 8 8 8 8 8 9 9 9 10 11 12 13 14 15 16
3 3 3 3 3 3 3 4 4 4 4 4 4 4 4 4 4 4 4 5 5 6 6 7 7 8 8 9 9 9 9 8 8 9 10 11 12 14 16 16 16 16 16
3 3 3 3 3 3 3 4 4 4 4 4 4 4 4 4 4 4 5 5 6 6 6 7 8 8 9 10 11 11 10 10 10 10 12 14 16 17 18 18 17 17 17
4 3 3 3 3 3 3 4 4 4 4 4 4 4 4 4 4 5 5 6 6 6 7 7 8 9 10 11 12 13 13 13 13 14 16 17 18 18 18 18 18 18 18
3 3 3 3 3 3 3 3 4 4 4 4 4 4 4 5 5 5 6 6 7 7 7 7 8 9 10 11 13 15 16 17 17 18 18 19 19 18 18 18 18 18 18
3 3 3 3 3 3 3 3 3 3 3 3 4 4 4 5 6 6 7 7 7 8 8 8 8 9 10 11 14 17 18 19 19 19 19 18 18 17 17 17 17 18 17
3 3 3 2 2 3 3 3 3 3 3 3 3 4 4 5 6 7 7 8 8 9 9 9 9 10 11 12 15 18 19 19 19 19 18 17 16 16 15 16 16 17 17
3 3 3 3 3 3 3 3 3 3 3 3 3 4 4 5 6 7 7 8 9 9 10 10 11 11 12 14 17 18 19 19 19 18 17 16 15 14 15 15 15 16 16